Akron Canton, OH

7:45 PM EST on February 23, 2018 (GMT -0500)
Akron-Canton Regional

Weather History for KCAK - July, 2013

Change the Weather History Date:

Tuesday, July 23, 2013

  Actual Average Record
Temperature  
Mean Temperature 74 °F 72 °F  
Max Temperature 83 °F 82 °F 101 °F (1933)
Min Temperature 65 °F 62 °F 45 °F (1904)
Degree Days  
Heating Degree Days 0 0  
Month to date heating degree days 0 0  
Since 1 June heating degree days 27 49  
Since 1 July heating degree days 0 0  
Cooling Degree Days 9 7  
Month to date cooling degree days 262 161  
Year to date cooling degree days 529 338  
Since 1 June cooling degree days 423 296  
Growing Degree Days 23 (Base 50)    
Moisture  
Dew Point 66 °F    
Average Humidity 85    
Maximum Humidity 100    
Minimum Humidity 69    
Precipitation  
Precipitation 1.07 in 0.14 in 1.40 in (1992)
Month to date precipitation 6.83 3.05  
Year to date precipitation 25.00 22.61  
Snow  
Snow 0.00 in 0.00 in - ()
Month to date snowfall 0.0 0.0  
Since 1 June snowfall 0.0 0.0  
Since 1 July snowfall 0.0 0.0  
Snow Depth 0.00 in    
Sea Level Pressure  
Sea Level Pressure 29.76 in    
Wind  
Wind Speed 8 mph (West)    
Max Wind Speed 18 mph    
Max Gust Speed 24 mph    
Visibility 4 miles    
Events Fog , Rain , Thunderstorm    
T = Trace of Precipitation, MM = Missing Value Source: NWS Daily Summary

Daily Weather History Graph

Daily Weather History Graph

Search for Another Location

Airport or City:

Trip Planner

Search our weather history database for the weather conditions in past years. The results will help you decide how hot, cold, wet, or windy it might be!

Date:

Astronomy

Jul. 23, 2013 Rise Set
Actual Time 6:13 AM EDT 8:50 PM EDT
Civil Twilight 5:42 AM EDT 9:21 PM EDT
Nautical Twilight 5:02 AM EDT 10:01 PM EDT
Astronomical Twilight 4:17 AM EDT 10:45 PM EDT
Moon 9:16 PM EDT (7/23) 7:21 AM EDT (7/23)
Length of Visible Light 15h 39m
Length of Day
14h 36m
Full, 99% of the Moon is Illuminated
Jul 23
Full
Jul 29
Last Quarter
Aug 6
New
Aug 14
First Quarter
Aug 20
Full

Hourly Weather History & Observations

Time (EDT) Temp. Heat Index Dew Point Humidity Pressure Visibility Wind Dir Wind Speed Gust Speed Precip Events Conditions
12:21 AM 66.2 °F - 64.4 °F 94% 29.81 in 1.8 mi NW 4.6 mph - 0.00 in   Overcast
12:42 AM 66.2 °F - 64.4 °F 94% 29.81 in 1.5 mi NW 4.6 mph - 0.01 in Rain Light Rain
12:51 AM 66.9 °F - 64.9 °F 93% 29.79 in 2.0 mi NW 4.6 mph - 0.01 in Rain Light Rain
1:51 AM 66.9 °F - 64.9 °F 93% 29.78 in 2.0 mi Calm Calm - 0.00 in   Overcast
1:59 AM 66.2 °F - 64.4 °F 94% 29.80 in 3.0 mi WNW 4.6 mph - N/A   Overcast
2:51 AM 64.9 °F - 63.0 °F 93% 29.78 in 3.0 mi NW 3.5 mph - N/A   Scattered Clouds
3:40 AM 64.4 °F - 62.6 °F 94% 29.80 in 0.5 mi West 4.6 mph - N/A   Partly Cloudy
3:51 AM 64.9 °F - 63.0 °F 93% 29.78 in 0.5 mi West 4.6 mph - N/A Fog Fog
3:59 AM 64.4 °F - 62.6 °F 94% 29.80 in 0.2 mi West 5.8 mph - N/A Fog Fog
4:38 AM 64.4 °F - 64.4 °F 100% 29.79 in 0.2 mi West 4.6 mph - N/A Fog Fog
4:51 AM 64.9 °F - 64.0 °F 97% 29.78 in 0.2 mi West 5.8 mph - N/A Fog Fog
5:23 AM 64.4 °F - 64.4 °F 100% 29.79 in 0.2 mi WSW 3.5 mph - N/A Fog Fog
5:51 AM 64.9 °F - 64.0 °F 97% 29.78 in 0.2 mi West 3.5 mph - N/A Fog Fog
6:51 AM 64.9 °F - 63.0 °F 93% 29.79 in 0.2 mi WSW 8.1 mph - N/A Fog Fog
7:51 AM 64.9 °F - 64.0 °F 97% 29.80 in 0.2 mi WSW 5.8 mph - N/A Fog Fog
8:51 AM 66.9 °F - 64.9 °F 93% 29.78 in 0.8 mi SW 4.6 mph - N/A Fog Overcast
9:12 AM 66.2 °F - 64.4 °F 94% 29.81 in 1.0 mi SW 4.6 mph - N/A   Overcast
9:51 AM 68.0 °F - 66.0 °F 93% 29.78 in 2.5 mi SW 6.9 mph - N/A   Mostly Cloudy
10:35 AM 73.4 °F - 66.2 °F 78% 29.79 in 4.0 mi WSW 8.1 mph - N/A   Haze
10:51 AM 73.0 °F - 66.0 °F 79% 29.77 in 6.0 mi SW 5.8 mph - N/A   Haze
11:51 AM 77.0 °F - 66.9 °F 71% 29.78 in 6.0 mi SW 10.4 mph 16.1 mph N/A   Haze
12:20 PM 78.8 °F - 66.2 °F 65% 29.80 in 8.0 mi WSW 10.4 mph - N/A   Mostly Cloudy
12:51 PM 79.0 °F - 68.0 °F 69% 29.77 in 8.0 mi SW 11.5 mph 18.4 mph N/A   Mostly Cloudy
1:51 PM 81.0 °F 84.1 °F 69.1 °F 67% 29.75 in 8.0 mi SW 11.5 mph - N/A   Mostly Cloudy
2:40 PM 77.0 °F - 69.8 °F 78% 29.75 in 4.0 mi South 6.9 mph - 0.03 in Rain , Thunderstorm Light Thunderstorms and Rain
2:51 PM 77.0 °F - 70.0 °F 79% 29.70 in 4.0 mi SSE 12.7 mph - 0.11 in Rain , Thunderstorm Light Thunderstorms and Rain
3:51 PM 78.1 °F - 68.0 °F 71% 29.69 in 7.0 mi South 12.7 mph 23.0 mph 0.00 in Thunderstorm Thunderstorm
3:56 PM 75.2 °F - 69.8 °F 83% 29.73 in 1.2 mi WSW 6.9 mph 23.0 mph 0.01 in Rain , Thunderstorm Thunderstorms and Rain
4:05 PM 73.4 °F - 69.8 °F 88% 29.74 in 4.0 mi North 9.2 mph - 0.13 in Rain , Thunderstorm Heavy Thunderstorms and Rain
4:21 PM 69.8 °F - 64.4 °F 83% 29.74 in 2.0 mi NNW 8.1 mph 24.2 mph 0.15 in Rain , Thunderstorm Heavy Thunderstorms and Rain
4:41 PM 73.4 °F - 64.4 °F 73% 29.73 in 9.0 mi NNW 5.8 mph - 0.32 in Rain , Thunderstorm Light Thunderstorms and Rain
4:51 PM 72.0 °F - 66.0 °F 81% 29.71 in 9.0 mi NE 6.9 mph - 0.32 in Rain , Thunderstorm Light Thunderstorms and Rain
5:51 PM 75.9 °F - 68.0 °F 76% 29.70 in 8.0 mi North 4.6 mph - 0.00 in Rain , Thunderstorm Light Thunderstorms and Rain
6:08 PM 77.0 °F - 69.8 °F 78% 29.70 in 8.0 mi Calm Calm - 0.00 in   Mostly Cloudy
6:51 PM 75.9 °F - 68.0 °F 76% 29.69 in 9.0 mi SE 13.8 mph - 0.00 in   Mostly Cloudy
7:51 PM 73.9 °F - 66.9 °F 79% 29.70 in 8.0 mi South 12.7 mph - N/A   Mostly Cloudy
8:48 PM 69.8 °F - 66.2 °F 88% 29.73 in 2.0 mi SSW 5.8 mph - 0.09 in Rain Heavy Rain
8:51 PM 70.0 °F - 66.0 °F 87% 29.73 in 2.0 mi West 10.4 mph 16.1 mph 0.21 in Rain Heavy Rain
8:53 PM 69.8 °F - 66.2 °F 88% 29.75 in 1.5 mi West 9.2 mph 16.1 mph 0.10 in Rain Heavy Rain
9:12 PM 69.8 °F - 66.2 °F 88% 29.75 in 10.0 mi Calm Calm - 0.43 in Rain Light Rain
9:51 PM 70.0 °F - 66.9 °F 90% 29.75 in 8.0 mi NW 4.6 mph - 0.43 in Rain Light Rain
9:58 PM 69.8 °F - 66.2 °F 88% 29.77 in 9.0 mi NNW 9.2 mph - 0.00 in   Mostly Cloudy
10:51 PM 69.1 °F - 66.0 °F 90% 29.76 in 9.0 mi North 9.2 mph - 0.00 in   Mostly Cloudy
11:51 PM 69.1 °F - 64.0 °F 84% 29.78 in 8.0 mi North 6.9 mph - N/A   Overcast